Location: Rowland
(34.5359°N, 79.2929°W)
Time: 18:27:55
(UTC+00:00)

Transit 2A - Pass Details

Date: 06 October 2022
Orbit: 598 x 959 km, 66.7° (Epoch: 02 December)

Event Time Altitude Azimuth Distance (km) Brightness Sun altitude
Rises 10:56:09 0° 357° (N) 2,986 9.0 -4.8°
Reaches altitude 10° 11:00:29 10° 36° (NE) 2,158 8.8 -3.9°
Maximum altitude 11:01:39 11° 50° (NE) 2,132 9.1 -3.7°
Drops below altitude 10° 11:02:50 10° 63° (ENE) 2,209 9.5 -3.5°
Sets 11:07:30 0° 101° (E) 3,241 12.1 -2.5°
